EW7806 Weather Reports


Display with metric or nautical units.
time (UTC)temp
F
wind
direction
speed
MPH
gust
MPH
rain 1hr
in
rain 24hr
in
rain mn
in
humidity
%
barometer
mb
20260507234733 49 58 0.0 0.0 0.00 0.00 0.00 87 1017.8
20260507233723 49 58 0.0 0.0 0.00 0.00 0.00 87 1017.9
20260507232130 49 58 0.0 0.0 0.00 0.00 0.00 87 1017.9
20260507231610 49 58 0.0 0.0 0.00 0.00 0.00 87 1017.9
20260507231109 49 58 0.0 0.0 0.00 0.00 0.00 87 1017.9
20260507230607 49 58 0.0 0.0 0.00 0.00 0.00 87 1017.9
20260507230111 49 58 0.0 0.0 0.00 0.00 0.00 87 1017.9
20260507225607 49 58 0.0 0.0 0.00 0.00 0.00 86 1018.0
20260507225107 49 58 0.0 0.0 0.00 0.00 0.00 86 1017.9
20260507224610 49 58 0.0 0.0 0.00 0.00 0.00 86 1017.9
20260507224049 49 58 0.0 0.0 0.00 0.00 0.00 86 1017.9
20260507223540 49 58 0.0 0.0 0.00 0.00 0.00 86 1017.9
20260507223041 49 58 0.0 0.0 0.00 0.00 0.00 86 1017.9
20260507222537 49 58 0.0 0.0 0.00 0.00 0.00 85 1017.9
20260507222040 50 58 0.0 0.0 0.00 0.00 0.00 85 1017.9
20260507221518 50 58 0.0 0.0 0.00 0.00 0.00 85 1017.9
20260507220524 50 58 0.0 0.0 0.00 0.00 0.00 84 1017.9
20260507220030 50 58 0.0 0.0 0.00 0.00 0.00 84 1017.9
20260507215022 50 58 0.0 0.0 0.00 0.00 0.00 84 1017.9
20260507214025 51 58 0.0 0.0 0.00 0.00 0.00 84 1018.0
20260507213521 51 58 0.0 0.0 0.00 0.00 0.00 83 1017.9
20260507213023 51 58 0.0 0.0 0.00 0.00 0.00 83 1017.9
20260507212028 51 58 0.0 0.0 0.00 0.00 0.00 82 1017.9
20260507211523 51 58 0.0 0.0 0.00 0.00 0.00 82 1017.9
20260507211019 51 57 0.0 0.0 0.00 0.00 0.00 81 1017.9
20260507210523 51 62 0.0 0.0 0.00 0.00 0.00 80 1017.8
20260507210030 51 62 0.0 1.0 0.00 0.00 0.00 80 1017.8
20260507205505 51 54 0.0 1.0 0.00 0.00 0.00 79 1017.9
20260507205000 51 39 0.0 1.0 0.00 0.00 0.00 78 1017.8
20260507204500 51 22 0.0 1.0 0.00 0.00 0.00 78 1017.9
20260507203957 51 61 0.0 1.0 0.00 0.00 0.00 78 1017.8
20260507202947 51 69 0.0 0.0 0.00 0.00 0.00 77 1017.7
20260507201437 51 64 0.0 0.0 0.00 0.00 0.00 76 1017.6
20260507200934 51 82 0.0 0.0 0.00 0.00 0.00 76 1017.5
20260507200434 52 79 0.0 0.0 0.00 0.00 0.00 75 1017.4
20260507195931 52 79 0.0 0.0 0.00 0.00 0.00 75 1017.4
20260507195433 52 79 0.0 0.0 0.00 0.00 0.00 75 1017.4
20260507194936 53 79 0.0 0.0 0.00 0.00 0.00 74 1017.4
20260507194441 53 79 0.0 0.0 0.00 0.00 0.00 74 1017.4
20260507193430 53 79 0.0 0.0 0.00 0.00 0.00 72 1017.3
20260507192903 53 79 0.0 0.0 0.00 0.00 0.00 72 1017.3
20260507192405 53 79 0.0 0.0 0.00 0.00 0.00 72 1017.3
20260507191907 54 79 0.0 0.0 0.00 0.00 0.00 71 1017.2
20260507191332 54 79 0.0 0.0 0.00 0.00 0.00 71 1017.2
20260507190832 54 79 0.0 0.0 0.00 0.00 0.00 70 1017.2
20260507190332 55 62 0.0 0.0 0.00 0.00 0.00 69 1017.2
20260507185833 55 62 0.0 0.0 0.00 0.00 0.00 69 1017.2
20260507185329 55 46 0.0 1.0 0.00 0.00 0.00 69 1017.2
20260507184831 55 44 0.0 1.0 0.00 0.00 0.00 68 1017.1
20260507183806 56 36 0.0 1.0 0.00 0.00 0.00 68 1017.0
20260507183307 56 32 0.0 1.0 0.00 0.00 0.00 67 1017.0
20260507182749 56 31 0.0 1.0 0.00 0.00 0.00 67 1016.9
20260507181731 56 51 0.0 1.0 0.00 0.00 0.00 66 1017.0
20260507180731 57 66 0.0 1.0 0.00 0.00 0.00 64 1017.1
20260507180232 57 60 0.0 0.0 0.00 0.00 0.00 64 1017.0
20260507175732 57 118 0.0 2.0 0.00 0.00 0.00 64 1017.1
20260507175219 57 231 0.0 2.0 0.00 0.00 0.00 63 1017.0
20260507174704 58 84 0.0 1.0 0.00 0.00 0.00 62 1016.9
20260507174202 58 55 0.0 2.0 0.00 0.00 0.00 61 1017.0
20260507173203 58 29 0.0 2.0 0.00 0.00 0.00 58 1017.0
20260507172631 58 313 0.0 2.0 0.00 0.00 0.00 58 1016.9
20260507171630 59 75 0.0 1.0 0.00 0.00 0.00 57 1016.8
20260507171105 59 281 0.0 1.0 0.00 0.00 0.00 57 1016.8
20260507170604 59 79 0.0 2.0 0.00 0.00 0.00 56 1016.8
20260507170104 59 77 0.0 2.0 0.00 0.00 0.00 56 1016.7
20260507165540 59 281 0.0 1.0 0.00 0.00 0.00 56 1016.8
20260507165032 59 34 0.0 2.0 0.00 0.00 0.00 56 1016.8
20260507164533 60 34 0.0 2.0 0.00 0.00 0.00 56 1016.8
20260507164037 60 68 0.0 1.0 0.00 0.00 0.00 55 1016.8
20260507163531 60 245 0.0 1.0 0.00 0.00 0.00 57 1016.8
20260507162524 60 20 0.0 2.0 0.00 0.00 0.00 55 1016.8
20260507162024 60 50 0.0 2.0 0.00 0.00 0.00 53 1016.7
20260507161527 60 50 0.0 2.0 0.00 0.00 0.00 53 1016.7
20260507161028 60 44 0.0 2.0 0.00 0.00 0.00 53 1016.7
20260507160515 60 60 0.0 2.0 0.00 0.00 0.00 54 1016.6
20260507160015 60 61 0.0 2.0 0.00 0.00 0.00 54 1016.7
20260507155446 60 19 0.0 2.0 0.00 0.00 0.00 53 1016.7
20260507154943 61 38 0.0 1.0 0.00 0.00 0.00 53 1016.6
20260507154434 61 34 0.0 2.0 0.00 0.00 0.00 53 1016.6
20260507153935 61 271 0.0 2.0 0.00 0.00 0.00 54 1016.6
20260507153435 61 318 0.0 3.0 0.00 0.00 0.00 56 1016.5
20260507152932 61 105 0.0 3.0 0.00 0.00 0.00 56 1016.5
20260507152434 60 74 0.0 2.0 0.00 0.00 0.00 55 1016.5
20260507151407 60 68 0.0 1.0 0.00 0.00 0.00 56 1016.6
20260507150906 59 41 0.0 0.0 0.00 0.00 0.00 56 1016.5
20260507150408 59 300 0.0 1.0 0.00 0.00 0.00 57 1016.5
20260507145835 59 34 0.0 1.0 0.00 0.00 0.00 56 1016.5
20260507145334 59 66 0.0 1.0 0.00 0.00 0.00 58 1016.5
20260507144836 59 143 0.0 1.0 0.00 0.00 0.00 57 1016.5
20260507144328 59 72 0.0 1.0 0.00 0.00 0.00 57 1016.6
20260507143821 59 52 0.0 1.0 0.00 0.00 0.00 58 1016.6
20260507143307 59 243 0.0 1.0 0.00 0.00 0.00 58 1016.7
20260507142805 59 66 0.0 1.0 0.00 0.00 0.00 58 1016.6
20260507142307 60 40 0.0 1.0 0.00 0.00 0.00 56 1016.7
20260507141802 60 32 0.0 1.0 0.00 0.00 0.00 59 1016.7
20260507141233 60 100 0.0 2.0 0.00 0.00 0.00 58 1016.8
20260507140731 60 121 0.0 2.0 0.00 0.00 0.00 58 1016.6
20260507140232 60 67 0.0 1.0 0.00 0.00 0.00 56 1016.7
20260507135716 60 113 0.0 1.0 0.00 0.00 0.00 58 1016.7
20260507135212 60 150 0.0 1.0 0.00 0.00 0.00 56 1016.7
20260507134706 60 82 0.0 1.0 0.00 0.00 0.00 56 1016.8
20260507134135 60 75 0.0 2.0 0.00 0.00 0.00 56 1016.7
20260507133632 60 53 0.0 2.0 0.00 0.00 0.00 56 1016.6
20260507133133 59 35 0.0 2.0 0.00 0.00 0.00 56 1016.7
20260507132606 60 243 0.0 5.0 0.00 0.00 0.00 56 1016.8
20260507132108 60 244 0.0 5.0 0.00 0.00 0.00 57 1016.7
20260507131607 60 46 0.0 2.0 0.00 0.00 0.00 56 1016.7
20260507131049 60 62 0.0 4.0 0.00 0.00 0.00 56 1016.7
20260507130551 62 100 0.0 4.0 0.00 0.00 0.00 56 1016.7
20260507130039 62 110 0.0 4.0 0.00 0.00 0.00 56 1016.7
20260507125037 64 44 0.0 3.0 0.00 0.00 0.00 53 1016.6
20260507124533 64 44 0.0 3.0 0.00 0.00 0.00 53 1016.7
20260507124035 65 266 0.0 4.0 0.00 0.00 0.00 54 1016.7
20260507123535 65 39 0.0 4.0 0.00 0.00 0.00 54 1016.7
20260507123025 64 106 0.0 4.0 0.00 0.00 0.00 53 1016.7
20260507122029 63 49 0.0 3.0 0.00 0.00 0.00 57 1016.7
20260507121527 63 49 0.0 3.0 0.00 0.00 0.00 57 1016.7
20260507121028 62 355 0.0 3.0 0.00 0.00 0.00 59 1016.7
20260507120522 61 326 0.0 3.0 0.00 0.00 0.00 59 1016.7
20260507120015 61 58 0.0 3.0 0.00 0.00 0.00 58 1016.7
20260507114512 62 70 0.0 3.0 0.00 0.00 0.00 59 1016.7
20260507114017 62 63 0.0 2.0 0.00 0.00 0.00 60 1016.6
20260507113534 63 120 0.0 2.0 0.00 0.00 0.00 57 1016.6
20260507113026 64 60 0.0 2.0 0.00 0.00 0.00 57 1016.6
20260507112527 64 32 0.0 2.0 0.00 0.00 0.00 55 1016.5
20260507112027 64 60 0.0 4.0 0.00 0.00 0.00 55 1016.6
20260507111524 64 63 0.0 4.0 0.00 0.00 0.00 53 1016.6
20260507110521 64 120 0.0 2.0 0.00 0.00 0.00 54 1016.7
20260507110000 64 96 0.0 2.0 0.00 0.00 0.00 53 1016.7
20260507104945 64 241 0.0 2.0 0.00 0.00 0.00 54 1016.7
20260507103938 64 288 0.0 2.0 0.00 0.00 0.00 56 1016.8
20260507102912 63 65 0.0 4.0 0.00 0.00 0.00 58 1016.8
20260507101910 61 91 1.0 4.0 0.00 0.00 0.00 58 1016.8
20260507101407 61 89 1.0 4.0 0.00 0.00 0.00 58 1016.8
20260507100907 61 41 0.0 4.0 0.00 0.00 0.00 57 1016.7
20260507100412 61 97 0.0 1.0 0.00 0.00 0.00 56 1016.7
20260507095836 62 56 0.0 2.0 0.00 0.00 0.00 55 1016.6
20260507094842 62 41 0.0 3.0 0.00 0.00 0.00 54 1016.5
20260507094317 62 25 0.0 3.0 0.00 0.00 0.00 55 1016.6
20260507093813 62 74 0.0 3.0 0.00 0.00 0.00 56 1016.6
20260507093312 62 30 0.0 3.0 0.00 0.00 0.00 54 1016.5
20260507092807 62 311 0.0 1.0 0.00 0.00 0.00 57 1016.5
20260507092307 62 65 0.0 1.0 0.00 0.00 0.00 56 1016.5
20260507091805 61 60 0.0 1.0 0.00 0.00 0.00 59 1016.4
20260507091255 61 58 0.0 2.0 0.00 0.00 0.00 59 1016.4
20260507090746 61 44 0.0 2.0 0.00 0.00 0.00 61 1016.3
20260507085734 60 273 0.0 1.0 0.00 0.00 0.00 62 1016.4
20260507084733 59 65 0.0 1.0 0.00 0.00 0.00 65 1016.3
20260507084219 59 67 0.0 3.0 0.00 0.00 0.00 66 1016.3
20260507083212 58 94 0.0 2.0 0.00 0.00 0.00 67 1016.2
20260507082705 58 51 0.0 2.0 0.00 0.00 0.00 67 1016.2
20260507082208 58 41 0.0 1.0 0.00 0.00 0.00 67 1016.2
20260507081706 57 82 0.0 1.0 0.00 0.00 0.00 68 1016.2
20260507081219 57 283 0.0 1.0 0.00 0.00 0.00 70 1016.2
20260507080207 56 27 0.0 1.0 0.00 0.00 0.00 70 1016.1
20260507075641 56 39 0.0 1.0 0.00 0.00 0.00 70 1016.1
20260507075140 56 171 0.0 1.0 0.00 0.00 0.00 72 1016.1
20260507074136 55 78 0.0 1.0 0.00 0.00 0.00 73 1016.1
20260507073634 55 79 0.0 1.0 0.00 0.00 0.00 74 1016.1
20260507073135 55 44 0.0 1.0 0.00 0.00 0.00 73 1016.1
20260507072634 54 359 0.0 1.0 0.00 0.00 0.00 73 1016.0
20260507072133 54 115 0.0 1.0 0.00 0.00 0.00 75 1015.9
20260507071633 54 70 0.0 1.0 0.00 0.00 0.00 77 1016.0
20260507071109 53 72 0.0 1.0 0.00 0.00 0.00 78 1015.9
20260507070606 53 162 0.0 1.0 0.00 0.00 0.00 77 1015.9
20260507070109 53 103 0.0 1.0 0.00 0.00 0.00 79 1015.9
20260507065607 52 75 0.0 1.0 0.00 0.00 0.00 81 1015.9
20260507065111 52 43 0.0 0.0 0.00 0.00 0.00 84 1015.9
20260507064606 52 68 0.0 0.0 0.00 0.00 0.00 84 1015.9
20260507064112 51 249 0.0 1.0 0.00 0.00 0.00 85 1015.9
20260507063608 51 266 0.0 0.0 0.00 0.00 0.00 86 1015.8
20260507063109 50 70 0.0 0.0 0.00 0.00 0.00 88 1015.8
20260507062605 49 88 0.0 0.0 0.00 0.00 0.00 88 1015.8
20260507062108 49 180 0.0 1.0 0.00 0.00 0.00 89 1015.8
20260507061610 48 230 0.0 1.0 0.00 0.00 0.00 89 1015.7
20260507061110 48 86 0.0 0.0 0.00 0.00 0.00 90 1015.7
20260507060113 47 89 0.0 0.0 0.00 0.00 0.00 90 1015.7
20260507055112 46 91 0.0 0.0 0.00 0.00 0.00 91 1015.6
20260507054615 45 91 0.0 0.0 0.00 0.00 0.00 91 1015.6
20260507053605 44 91 0.0 0.0 0.00 0.00 0.00 91 1015.5
20260507053107 44 53 0.0 0.0 0.00 0.00 0.00 91 1015.5
20260507052603 43 50 0.0 0.0 0.00 0.00 0.00 91 1015.3
20260507052105 43 44 0.0 0.0 0.00 0.00 0.00 91 1015.3
20260507051608 43 44 0.0 0.0 0.00 0.00 0.00 91 1015.3
20260507051048 42 44 0.0 0.0 0.00 0.00 0.00 91 1015.2
20260507050533 42 44 0.0 0.0 0.00 0.00 0.00 91 1015.1
20260507050036 42 44 0.0 0.0 0.00 0.00 0.00 91 1015.1
20260507045032 41 44 0.0 0.0 0.00 0.00 0.00 91 1015.0
20260507044520 41 44 0.0 0.0 0.00 0.00 0.00 91 1015.0
20260507044026 41 44 0.0 0.0 0.00 0.00 0.00 91 1014.9
20260507043516 41 44 0.0 0.0 0.00 0.00 0.00 91 1014.9
20260507042514 41 44 0.0 0.0 0.00 0.00 0.00 91 1014.8
20260507041945 41 44 0.0 0.0 0.00 0.00 0.00 91 1014.8
20260507041436 41 44 0.0 0.0 0.00 0.00 0.00 91 1014.8
20260507035909 41 44 0.0 0.0 0.00 0.00 0.00 91 1014.8
20260507035406 41 44 0.0 0.0 0.00 0.00 0.00 91 1014.8
20260507034902 41 44 0.0 0.0 0.00 0.00 0.00 91 1014.7
20260507033833 42 44 0.0 0.0 0.00 0.00 0.00 91 1014.7
20260507033336 42 44 0.0 0.0 0.00 0.00 0.00 91 1014.7
20260507032809 42 44 0.0 0.0 0.00 0.00 0.00 91 1014.6
20260507032308 42 44 0.0 0.0 0.00 0.00 0.00 90 1014.6
20260507031810 42 44 0.0 0.0 0.00 0.00 0.00 90 1014.5
20260507031310 42 44 0.0 0.0 0.00 0.00 0.00 90 1014.5
20260507030804 42 44 0.0 0.0 0.00 0.00 0.00 90 1014.5
20260507030305 42 44 0.0 0.0 0.00 0.00 0.00 90 1014.5
20260507024737 42 44 0.0 0.0 0.00 0.00 0.00 90 1014.4
20260507024232 42 44 0.0 0.0 0.00 0.00 0.00 90 1014.4
20260507023209 43 44 0.0 0.0 0.00 0.00 0.00 90 1014.4
20260507022700 43 44 0.0 0.0 0.00 0.00 0.00 90 1014.4
20260507022133 43 44 0.0 0.0 0.00 0.00 0.00 90 1014.3
20260507021638 43 44 0.0 0.0 0.00 0.00 0.00 90 1014.3
20260507021121 43 44 0.0 0.0 0.00 0.00 0.00 90 1014.3
20260507020608 43 44 0.0 0.0 0.00 0.00 0.00 90 1014.2
20260507020122 43 44 0.0 0.0 0.00 0.00 0.00 90 1014.2
20260507015613 43 44 0.0 0.0 0.00 0.00 0.00 90 1014.2
20260507015107 43 44 0.0 0.0 0.00 0.00 0.00 90 1014.1
20260507014610 43 44 0.0 0.0 0.00 0.00 0.00 89 1014.0
20260507014108 43 44 0.0 0.0 0.00 0.00 0.00 89 1014.1
20260507013607 43 44 0.0 0.0 0.00 0.00 0.00 89 1014.1
20260507013115 44 44 0.0 0.0 0.00 0.00 0.00 89 1014.1
20260507012611 44 44 0.0 0.0 0.00 0.00 0.00 89 1014.1
20260507012107 44 44 0.0 0.0 0.00 0.00 0.00 89 1014.1
20260507011606 44 44 0.0 0.0 0.00 0.00 0.00 89 1014.1
20260507010605 44 44 0.0 0.0 0.00 0.00 0.00 89 1014.1
20260507010108 44 44 0.0 0.0 0.00 0.00 0.00 89 1014.1
20260507005534 44 44 0.0 0.0 0.00 0.00 0.00 89 1014.0
20260507005032 44 44 0.0 0.0 0.00 0.00 0.00 89 1014.0
20260507004535 44 44 0.0 0.0 0.00 0.00 0.00 89 1014.0
20260507004031 44 44 0.0 0.0 0.00 0.00 0.00 89 1014.0
20260507003522 44 44 0.0 0.0 0.00 0.00 0.00 89 1013.9
20260507003022 44 44 0.0 0.0 0.00 0.00 0.00 89 1013.9
20260507002516 44 44 0.0 0.0 0.00 0.00 0.00 89 1014.0
20260507002022 45 44 0.0 0.0 0.00 0.00 0.00 89 1014.0
20260507001523 45 44 0.0 0.0 0.00 0.00 0.00 89 1014.0
20260507001020 45 44 0.0 0.0 0.00 0.00 0.00 89 1014.0
20260507000520 45 44 0.0 0.0 0.00 0.00 0.00 88 1014.1
20260507000028 45 44 0.0 0.0 0.00 0.00 0.00 88 1014.1
20260506235520 45 44 0.0 0.0 0.00 0.00 0.00 88 1014.1